{"data":{"norad_id":60547,"epoch":"2026-05-25T04:31:19.708320Z","epoch_age_seconds":55807,"freshness":"FRESH","line1":"1 60547U 24149CH  26145.18842255  .00016622  00000+0  83805-3 0  9998","line2":"2 60547  97.6971 232.0410 0001918  93.3687 266.7765 15.17225331 97241","mean_motion":15.17225331,"eccentricity":0.0001918,"inclination_deg":97.6971,"raan_deg":232.041,"arg_perigee_deg":93.3687,"mean_anomaly_deg":266.7765,"bstar":0.00083805,"rev_number":9724,"period_min":94.910094801205,"perigee_km":512.90894818518,"apogee_km":515.55286051328,"semimajor_km":6892.3679043492,"source":"CELESTRAK","updated_at":"2026-05-25T13:38:02.151025Z"}}